Tracking 18843 objects as of 20-November-2017
HD Live streaming from Space Station
objects crossing your sky now

SL-16 DEB

Track SL-16 DEB now!
10-day predictions


NORAD ID: 27491
Int'l Code: 1998-043L
Perigee: 821.4 km
Apogee: 1,125.6 km
Inclination: 98.9 °
Period: 104.4 minutes
Semi major axis: 7344 km
RCS: 0.0795 m2 (small)
Launch date: July 10, 1998
Source: Commonwealth of Independent States (former USSR) (CIS)
Launch site: TYURATAM MISSILE AND SPACE COMPLEX (TTMTR)

Note: This is SATELLITE DEBRIS
aabbcc
Your satellite tracking list
Your tracking list is empty




NASA's NSSDC Master Catalog

Two Line Element Set (TLE):
1 27491U 98043L   17323.46262683 +.00000005 +00000-0 +38167-4 0  9994
2 27491 098.8873 140.6540 0207050 014.3838 346.3090 13.79299975974364
Source of the keplerian elements: AFSPC